2024-247U (62395 NORAD) Tracking and Keplerian Element Data

This shows tracking and keplerian element data for the satellite.

Feedback or suggestion? Click here.




ElementValue
Catalog62395
Name2024-247U
Epoch Orbit681
Epoch Day34.29145975
Epoch Year2025
RAAN124.4028
Inclination44.9947
Eccentricity0.0003567
Argument of Perigee254.0176
Mean Anonmoly106.0311
Mean Motion15.2132566
Decay Rate0.00024374
L11 62395U 24247U 25034.29145975 .00024374 00000+0 10780-2 0 9997
L22 62395 44.9947 124.4028 0003567 254.0176 106.0311 15.21325660 6819



Live tracking and technical data element details for 2024-247U (NORAD 62395). 2024-247U can be tracked NOW for your location showing map with azimuth and elevation plus other details from your city location.







IsCatalogInMostPopularTable: catalog: 62395, numindb: 17
Update: records affected: 1



GetName: 62395 2024-247U

Hit Count: updated at: Sat, 24 May 2025 17:06:48 GMT